SAS537 EKCH-EIDW

Flight info

Callsign SAS537
Flight time N/A
Altitude 34000
Route ODDON L975 RIDSI DCT LESRA DCT ROPAL DCT ERDOW UL975 DESIG UL70 GUNTU Z196 LELDO M145 BAGSO BAGSO3R
Aircraft A321/M-SDE3FGHIRWY/LB1

Departure

Time 2026-04-24 15:25
Airport Copenhagen Kastrup Airport (EKCH)

Arrival

Time N/A
Airport Dublin Airport (EIDW)
Time Latitude Longitude Altitude Speed Heading
2026-04-24 14:47 55.62672 12.64430 21 ft 0 kts 102°
2026-04-24 15:13 55.62673 12.64423 22 ft 3 kts 102°
2026-04-24 15:14 55.62677 12.64378 20 ft 3 kts 85°
2026-04-24 15:14 55.62674 12.64340 25 ft 4 kts 61°
2026-04-24 15:14 55.62656 12.64309 23 ft 4 kts 25°
2026-04-24 15:14 55.62636 12.64293 27 ft 3 kts 26°
2026-04-24 15:15 55.62614 12.64271 24 ft 4 kts 42°
2026-04-24 15:15 55.62599 12.64237 24 ft 4 kts 66°
2026-04-24 15:15 55.62595 12.64199 22 ft 4 kts 122°
2026-04-24 15:15 55.62611 12.64164 23 ft 3 kts 123°
2026-04-24 15:16 55.62624 12.64129 25 ft 4 kts 124°
2026-04-24 15:16 55.62625 12.64125 25 ft 0 kts 124°
2026-04-24 15:17 55.62625 12.64126 25 ft 0 kts 124°
2026-04-24 15:17 55.62618 12.64145 26 ft 3 kts 124°
2026-04-24 15:18 55.62592 12.64199 22 ft 7 kts 147°
2026-04-24 15:18 55.62537 12.64200 21 ft 9 kts 172°
2026-04-24 15:18 55.62492 12.64280 21 ft 11 kts 125°
2026-04-24 15:18 55.62443 12.64402 18 ft 13 kts 127°
2026-04-24 15:19 55.62391 12.64529 21 ft 12 kts 125°
2026-04-24 15:19 55.62342 12.64659 20 ft 13 kts 123°
2026-04-24 15:19 55.62297 12.64783 23 ft 11 kts 122°
2026-04-24 15:19 55.62258 12.64890 24 ft 11 kts 123°
2026-04-24 15:20 55.62213 12.65008 24 ft 12 kts 124°
2026-04-24 15:20 55.62153 12.65098 24 ft 12 kts 179°
2026-04-24 15:20 55.62072 12.65021 21 ft 15 kts 213°
2026-04-24 15:20 55.61980 12.64912 19 ft 17 kts 214°
2026-04-24 15:21 55.61875 12.64786 18 ft 18 kts 217°
2026-04-24 15:21 55.61772 12.64673 21 ft 17 kts 212°
2026-04-24 15:21 55.61674 12.64561 22 ft 16 kts 212°
2026-04-24 15:21 55.61578 12.64453 23 ft 17 kts 212°
2026-04-24 15:22 55.61479 12.64340 25 ft 17 kts 213°
2026-04-24 15:22 55.61369 12.64215 20 ft 20 kts 213°
2026-04-24 15:22 55.61252 12.64074 18 ft 21 kts 212°
2026-04-24 15:23 55.61005 12.63795 22 ft 21 kts 212°
2026-04-24 15:23 55.60762 12.63646 22 ft 19 kts 141°
2026-04-24 15:23 55.60688 12.63833 24 ft 17 kts 86°
2026-04-24 15:24 55.60839 12.64124 24 ft 61 kts 40°
2026-04-24 15:25 55.61908 12.65796 57 ft 176 kts 42°
2026-04-24 15:25 55.64273 12.69538 1459 ft 212 kts 36°
2026-04-24 15:26 55.68623 12.70543 3064 ft 234 kts 343°
2026-04-24 15:27 55.73581 12.69533 5292 ft 245 kts 354°
2026-04-24 15:27 55.78769 12.68971 7355 ft 256 kts 354°